Time,TemperatureF,DewpointF,PressureIn,WindDirection,WindDirectionDegrees,WindSpeedMPH,WindSpeedGustMPH,Humidity,HourlyPrecipIn,Conditions,Clouds,dailyrainin,SoftwareType,DateUTC
2013-03-07 00:01:00,31.0,27.0,-100.00,SSE,150,10.0,12.0,82,-99.99,,,-99.99,,2013-03-07 07:01:00,
2013-03-07 00:11:00,31.0,27.0,-100.00,SSE,150,7.0,12.0,82,-99.99,,,-99.99,,2013-03-07 07:11:00,
2013-03-07 00:21:00,31.0,27.0,-100.00,SSE,160,8.0,12.0,82,-99.99,,,-99.99,,2013-03-07 07:21:00,
2013-03-07 00:32:00,31.0,26.0,-100.00,SSE,165,6.0,9.0,82,-99.99,,,-99.99,,2013-03-07 07:32:00,
2013-03-07 00:42:00,29.0,25.0,-100.00,South,175,9.0,9.0,82,-99.99,,,-99.99,,2013-03-07 07:42:00,
2013-03-07 00:52:00,29.0,25.0,-100.00,SSE,155,6.0,11.0,83,-99.99,,,-99.99,,2013-03-07 07:52:00,
2013-03-07 01:02:00,28.0,24.0,-100.00,South,175,7.0,9.0,84,-99.99,,,-99.99,,2013-03-07 08:02:00,
2013-03-07 01:12:00,27.0,23.0,-100.00,SSW,200,2.0,7.0,83,-99.99,,,-99.99,,2013-03-07 08:12:00,
2013-03-07 01:22:00,28.0,24.0,-100.00,South,175,6.0,10.0,84,-99.99,,,-99.99,,2013-03-07 08:22:00,
2013-03-07 01:33:00,28.0,24.0,-100.00,SE,140,2.0,9.0,85,-99.99,,,-99.99,,2013-03-07 08:33:00,
2013-03-07 01:43:00,26.0,23.0,-100.00,East,90,3.0,4.0,85,-99.99,,,-99.99,,2013-03-07 08:43:00,
2013-03-07 01:52:00,27.0,23.0,-100.00,SSE,155,4.0,6.0,85,-99.99,,,-99.99,,2013-03-07 08:52:00,
2013-03-07 02:03:00,27.0,23.0,-100.00,SSW,195,7.0,7.0,85,-99.99,,,-99.99,,2013-03-07 09:03:00,
2013-03-07 02:13:00,26.0,23.0,-100.00,SW,215,9.0,9.0,86,-99.99,,,-99.99,,2013-03-07 09:13:00,
2013-03-07 02:23:00,27.0,24.0,-100.00,SW,230,4.0,8.0,86,-99.99,,,-99.99,,2013-03-07 09:23:00,
2013-03-07 02:32:00,26.0,23.0,-100.00,SSE,150,0.0,6.0,86,-99.99,,,-99.99,,2013-03-07 09:32:00,
2013-03-07 02:42:00,25.0,22.0,-100.00,East,85,2.0,5.0,86,-99.99,,,-99.99,,2013-03-07 09:42:00,
2013-03-07 02:52:00,25.0,21.0,-100.00,East,80,7.0,9.0,86,-99.99,,,-99.99,,2013-03-07 09:52:00,
2013-03-07 03:03:00,26.0,22.0,-100.00,SE,135,8.0,9.0,87,-99.99,,,-99.99,,2013-03-07 10:03:00,
2013-03-07 03:13:00,27.0,24.0,-100.00,SE,130,9.0,12.0,87,-99.99,,,-99.99,,2013-03-07 10:13:00,
2013-03-07 03:23:00,28.0,25.0,-100.00,SSE,160,10.0,12.0,87,-99.99,,,-99.99,,2013-03-07 10:23:00,
2013-03-07 03:33:00,29.0,25.0,-100.00,SSE,160,6.0,10.0,86,-99.99,,,-99.99,,2013-03-07 10:33:00,
2013-03-07 03:42:00,29.0,25.0,-100.00,South,180,1.0,9.0,86,-99.99,,,-99.99,,2013-03-07 10:42:00,
2013-03-07 03:52:00,29.0,25.0,-100.00,SE,140,4.0,6.0,86,-99.99,,,-99.99,,2013-03-07 10:52:00,
2013-03-07 04:02:00,28.0,25.0,-100.00,South,175,6.0,7.0,86,-99.99,,,-99.99,,2013-03-07 11:02:00,
2013-03-07 04:12:00,27.0,24.0,-100.00,South,170,3.0,8.0,86,-99.99,,,-99.99,,2013-03-07 11:12:00,
2013-03-07 04:23:00,27.0,24.0,-100.00,SE,145,6.0,7.0,86,-99.99,,,-99.99,,2013-03-07 11:23:00,
2013-03-07 04:33:00,25.0,22.0,-100.00,West,260,6.0,9.0,86,-99.99,,,-99.99,,2013-03-07 11:33:00,
2013-03-07 04:43:00,25.0,22.0,-100.00,SSW,195,3.0,7.0,87,-99.99,,,-99.99,,2013-03-07 11:43:00,
2013-03-07 04:52:00,25.0,22.0,-100.00,SW,220,4.0,4.0,87,-99.99,,,-99.99,,2013-03-07 11:52:00,
2013-03-07 05:02:00,24.0,21.0,-100.00,SW,230,4.0,7.0,87,-99.99,,,-99.99,,2013-03-07 12:02:00,
2013-03-07 05:12:00,24.0,21.0,-100.00,SW,230,2.0,3.0,87,-99.99,,,-99.99,,2013-03-07 12:12:00,
2013-03-07 05:22:00,25.0,22.0,-100.00,East,95,3.0,4.0,87,-99.99,,,-99.99,,2013-03-07 12:22:00,
2013-03-07 05:33:00,24.0,21.0,-100.00,ESE,115,4.0,4.0,87,-99.99,,,-99.99,,2013-03-07 12:33:00,
2013-03-07 05:42:00,25.0,22.0,-100.00,ESE,105,6.0,7.0,87,-99.99,,,-99.99,,2013-03-07 12:42:00,
2013-03-07 05:52:00,24.0,21.0,-100.00,East,95,8.0,9.0,87,-99.99,,,-99.99,,2013-03-07 12:52:00,
2013-03-07 06:02:00,25.0,22.0,-100.00,SW,230,3.0,6.0,87,-99.99,,,-99.99,,2013-03-07 13:02:00,
2013-03-07 06:12:00,25.0,22.0,-100.00,SE,140,5.0,6.0,88,-99.99,,,-99.99,,2013-03-07 13:12:00,
2013-03-07 06:22:00,26.0,23.0,-100.00,SSE,155,4.0,7.0,88,-99.99,,,-99.99,,2013-03-07 13:22:00,
2013-03-07 06:32:00,26.0,23.0,-100.00,SSE,150,4.0,6.0,88,-99.99,,,-99.99,,2013-03-07 13:32:00,
2013-03-07 06:42:00,26.0,23.0,-100.00,South,170,6.0,7.0,88,-99.99,,,-99.99,,2013-03-07 13:42:00,
2013-03-07 06:52:00,25.0,22.0,-100.00,SSW,195,4.0,4.0,88,-99.99,,,-99.99,,2013-03-07 13:52:00,
2013-03-07 07:02:00,25.0,22.0,-100.00,SSW,205,6.0,6.0,88,-99.99,,,-99.99,,2013-03-07 14:02:00,
2013-03-07 07:12:00,25.0,22.0,-100.00,SSW,195,6.0,7.0,88,-99.99,,,-99.99,,2013-03-07 14:12:00,
2013-03-07 07:22:00,25.0,22.0,-100.00,South,190,6.0,6.0,88,-99.99,,,-99.99,,2013-03-07 14:22:00,
2013-03-07 07:33:00,26.0,23.0,-100.00,South,180,6.0,6.0,88,-99.99,,,-99.99,,2013-03-07 14:33:00,
2013-03-07 07:42:00,29.0,26.0,-100.00,South,170,4.0,8.0,88,-99.99,,,-99.99,,2013-03-07 14:42:00,
2013-03-07 07:53:00,30.0,27.0,-100.00,SSE,165,5.0,7.0,87,-99.99,,,-99.99,,2013-03-07 14:53:00,
2013-03-07 08:02:00,32.0,28.0,-100.00,South,170,3.0,6.0,87,-99.99,,,-99.99,,2013-03-07 15:02:00,
2013-03-07 08:12:00,33.0,29.0,-100.00,South,185,4.0,6.0,86,-99.99,,,-99.99,,2013-03-07 15:12:00,
2013-03-07 08:22:00,33.0,29.0,-100.00,South,170,6.0,7.0,83,-99.99,,,-99.99,,2013-03-07 15:22:00,
2013-03-07 08:32:00,34.0,28.0,-100.00,South,170,7.0,9.0,79,-99.99,,,-99.99,,2013-03-07 15:32:00,
2013-03-07 08:42:00,36.0,29.0,-100.00,South,175,6.0,8.0,75,-99.99,,,-99.99,,2013-03-07 15:42:00,
2013-03-07 08:52:00,38.0,30.0,-100.00,South,175,5.0,6.0,70,-99.99,,,-99.99,,2013-03-07 15:52:00,
2013-03-07 09:02:00,39.0,29.0,-100.00,South,185,6.0,7.0,65,-99.99,,,-99.99,,2013-03-07 16:02:00,
2013-03-07 09:12:00,40.0,29.0,-100.00,South,180,4.0,8.0,62,-99.99,,,-99.99,,2013-03-07 16:12:00,
2013-03-07 09:23:00,42.0,28.0,-100.00,SSW,200,4.0,6.0,58,-99.99,,,-99.99,,2013-03-07 16:23:00,
2013-03-07 09:32:00,42.0,26.0,-100.00,SW,225,3.0,5.0,52,-99.99,,,-99.99,,2013-03-07 16:32:00,
2013-03-07 09:42:00,43.0,26.0,-100.00,SW,220,3.0,6.0,51,-99.99,,,-99.99,,2013-03-07 16:42:00,
2013-03-07 09:52:00,45.0,26.0,-100.00,SW,225,4.0,7.0,47,-99.99,,,-99.99,,2013-03-07 16:52:00,
2013-03-07 10:02:00,46.0,26.0,-100.00,South,185,2.0,6.0,45,-99.99,,,-99.99,,2013-03-07 17:02:00,
2013-03-07 10:12:00,47.0,26.0,-100.00,SSW,210,1.0,5.0,43,-99.99,,,-99.99,,2013-03-07 17:12:00,
2013-03-07 10:22:00,48.0,26.0,-100.00,SW,225,2.0,5.0,41,-99.99,,,-99.99,,2013-03-07 17:22:00,
2013-03-07 10:32:00,50.0,26.0,-100.00,South,185,1.0,4.0,39,-99.99,,,-99.99,,2013-03-07 17:32:00,
2013-03-07 10:43:00,51.0,26.0,-100.00,SSE,155,3.0,5.0,37,-99.99,,,-99.99,,2013-03-07 17:43:00,
2013-03-07 10:53:00,51.0,26.0,-100.00,SE,135,2.0,4.0,37,-99.99,,,-99.99,,2013-03-07 17:53:00,
2013-03-07 11:03:00,51.0,25.0,-100.00,ESE,110,3.0,4.0,36,-99.99,,,-99.99,,2013-03-07 18:03:00,
2013-03-07 11:12:00,51.0,24.0,-100.00,South,190,2.0,4.0,34,-99.99,,,-99.99,,2013-03-07 18:12:00,
2013-03-07 11:22:00,53.0,26.0,-100.00,SE,125,2.0,4.0,34,-99.99,,,-99.99,,2013-03-07 18:22:00,
2013-03-07 11:32:00,54.0,25.0,-100.00,East,100,3.0,4.0,32,-99.99,,,-99.99,,2013-03-07 18:32:00,
2013-03-07 11:42:00,55.0,25.0,-100.00,SE,125,4.0,6.0,30,-99.99,,,-99.99,,2013-03-07 18:42:00,
2013-03-07 11:52:00,56.0,25.0,-100.00,ESE,105,4.0,7.0,30,-99.99,,,-99.99,,2013-03-07 18:52:00,
2013-03-07 12:03:00,56.0,24.0,-100.00,East,95,7.0,7.0,29,-99.99,,,-99.99,,2013-03-07 19:03:00,
2013-03-07 12:12:00,57.0,25.0,-100.00,ENE,65,6.0,9.0,28,-99.99,,,-99.99,,2013-03-07 19:12:00,
2013-03-07 12:23:00,58.0,25.0,-100.00,NE,50,5.0,9.0,27,-99.99,,,-99.99,,2013-03-07 19:23:00,
2013-03-07 12:34:00,59.0,26.0,-100.00,ESE,105,6.0,9.0,28,-99.99,,,-99.99,,2013-03-07 19:34:00,
2013-03-07 12:43:00,61.0,23.0,-100.00,NE,45,6.0,11.0,22,-99.99,,,-99.99,,2013-03-07 19:43:00,
2013-03-07 12:52:00,60.0,24.0,-100.00,East,95,7.0,11.0,24,-99.99,,,-99.99,,2013-03-07 19:52:00,
2013-03-07 13:02:00,61.0,20.0,-100.00,NNE,20,6.0,10.0,20,-99.99,,,-99.99,,2013-03-07 20:02:00,
2013-03-07 13:13:00,61.0,21.0,-100.00,NE,40,8.0,11.0,20,-99.99,,,-99.99,,2013-03-07 20:13:00,
2013-03-07 13:22:00,62.0,20.0,-100.00,NNE,20,9.0,13.0,19,-99.99,,,-99.99,,2013-03-07 20:22:00,
2013-03-07 13:33:00,61.0,18.0,-100.00,North,0,9.0,15.0,18,-99.99,,,-99.99,,2013-03-07 20:33:00,
2013-03-07 13:42:00,62.0,19.0,-100.00,North,5,9.0,13.0,18,-99.99,,,-99.99,,2013-03-07 20:42:00,
2013-03-07 13:53:00,62.0,19.0,-100.00,NNE,15,9.0,15.0,18,-99.99,,,-99.99,,2013-03-07 20:53:00,
2013-03-07 14:12:00,62.0,19.0,-100.00,NNE,20,12.0,16.0,18,-99.99,,,-99.99,,2013-03-07 21:12:00,
2013-03-07 14:22:00,63.0,20.0,-100.00,NNE,25,10.0,19.0,18,-99.99,,,-99.99,,2013-03-07 21:22:00,
2013-03-07 14:32:00,64.0,20.0,-100.00,NE,45,12.0,17.0,18,-99.99,,,-99.99,,2013-03-07 21:32:00,
2013-03-07 14:42:00,64.0,19.0,-100.00,NE,35,12.0,18.0,17,-99.99,,,-99.99,,2013-03-07 21:42:00,
2013-03-07 14:52:00,64.0,19.0,-100.00,NNE,15,12.0,17.0,17,-99.99,,,-99.99,,2013-03-07 21:52:00,
2013-03-07 15:02:00,65.0,20.0,-100.00,NE,35,13.0,17.0,17,-99.99,,,-99.99,,2013-03-07 22:02:00,
2013-03-07 15:12:00,64.0,20.0,-100.00,NE,35,11.0,18.0,17,-99.99,,,-99.99,,2013-03-07 22:12:00,
2013-03-07 15:22:00,64.0,20.0,-100.00,NNE,25,9.0,17.0,18,-99.99,,,-99.99,,2013-03-07 22:22:00,
2013-03-07 15:32:00,64.0,20.0,-100.00,NE,40,12.0,18.0,17,-99.99,,,-99.99,,2013-03-07 22:32:00,
2013-03-07 15:53:00,64.0,20.0,-100.00,NNE,15,13.0,18.0,18,-99.99,,,-99.99,,2013-03-07 22:53:00,
2013-03-07 16:02:00,65.0,20.0,-100.00,NNE,30,10.0,17.0,17,-99.99,,,-99.99,,2013-03-07 23:02:00,
2013-03-07 16:12:00,64.0,19.0,-100.00,NNE,30,12.0,18.0,17,-99.99,,,-99.99,,2013-03-07 23:12:00,
2013-03-07 16:22:00,64.0,18.0,-100.00,NNE,15,13.0,17.0,16,-99.99,,,-99.99,,2013-03-07 23:22:00,
2013-03-07 16:33:00,65.0,18.0,-100.00,NNE,30,11.0,17.0,16,-99.99,,,-99.99,,2013-03-07 23:33:00,
2013-03-07 16:43:00,65.0,18.0,-100.00,NNE,25,15.0,19.0,16,-99.99,,,-99.99,,2013-03-07 23:43:00,
2013-03-07 16:52:00,64.0,18.0,-100.00,NNE,15,16.0,22.0,16,-99.99,,,-99.99,,2013-03-07 23:52:00,
2013-03-07 17:03:00,64.0,17.0,-100.00,NNE,30,13.0,19.0,16,-99.99,,,-99.99,,2013-03-08 00:03:00,
2013-03-07 17:12:00,63.0,18.0,-100.00,NNE,15,14.0,20.0,17,-99.99,,,-99.99,,2013-03-08 00:12:00,
2013-03-07 17:23:00,62.0,18.0,-100.00,NNE,15,15.0,19.0,17,-99.99,,,-99.99,,2013-03-08 00:23:00,
2013-03-07 17:34:00,62.0,18.0,-100.00,North,10,14.0,19.0,18,-99.99,,,-99.99,,2013-03-08 00:34:00,
2013-03-07 17:43:00,61.0,18.0,-100.00,NNE,15,13.0,19.0,18,-99.99,,,-99.99,,2013-03-08 00:43:00,
2013-03-07 17:52:00,60.0,19.0,-100.00,North,10,11.0,17.0,20,-99.99,,,-99.99,,2013-03-08 00:52:00,
2013-03-07 18:02:00,58.0,19.0,-100.00,North,10,10.0,16.0,21,-99.99,,,-99.99,,2013-03-08 01:02:00,
2013-03-07 18:11:00,57.0,19.0,-100.00,North,10,11.0,14.0,22,-99.99,,,-99.99,,2013-03-08 01:11:00,
2013-03-07 18:21:00,56.0,20.0,-100.00,North,10,11.0,14.0,24,-99.99,,,-99.99,,2013-03-08 01:21:00,
2013-03-07 18:32:00,54.0,21.0,-100.00,North,10,11.0,14.0,26,-99.99,,,-99.99,,2013-03-08 01:32:00,
2013-03-07 18:42:00,53.0,21.0,-100.00,North,10,12.0,16.0,29,-99.99,,,-99.99,,2013-03-08 01:42:00,
2013-03-07 18:51:00,51.0,22.0,-100.00,North,5,12.0,16.0,31,-99.99,,,-99.99,,2013-03-08 01:51:00,
2013-03-07 19:01:00,50.0,23.0,-100.00,North,5,11.0,14.0,33,-99.99,,,-99.99,,2013-03-08 02:01:00,
2013-03-07 19:11:00,50.0,24.0,-100.00,North,0,12.0,15.0,36,-99.99,,,-99.99,,2013-03-08 02:11:00,
2013-03-07 19:21:00,49.0,25.0,-100.00,North,5,9.0,14.0,38,-99.99,,,-99.99,,2013-03-08 02:21:00,
2013-03-07 19:32:00,48.0,25.0,-100.00,North,350,11.0,14.0,39,-99.99,,,-99.99,,2013-03-08 02:32:00,
2013-03-07 19:42:00,47.0,25.0,-100.00,North,0,11.0,14.0,41,-99.99,,,-99.99,,2013-03-08 02:42:00,
2013-03-07 19:52:00,45.0,25.0,-100.00,North,0,11.0,12.0,44,-99.99,,,-99.99,,2013-03-08 02:52:00,
2013-03-07 20:02:00,45.0,26.0,-100.00,North,0,11.0,13.0,46,-99.99,,,-99.99,,2013-03-08 03:02:00,
2013-03-07 20:12:00,44.0,26.0,-100.00,North,0,11.0,14.0,49,-99.99,,,-99.99,,2013-03-08 03:12:00,
2013-03-07 20:32:00,42.0,27.0,-100.00,North,0,8.0,11.0,54,-99.99,,,-99.99,,2013-03-08 03:32:00,
2013-03-07 20:42:00,41.0,27.0,-100.00,North,5,7.0,11.0,56,-99.99,,,-99.99,,2013-03-08 03:42:00,
2013-03-07 20:52:00,41.0,27.0,-100.00,North,0,7.0,11.0,57,-99.99,,,-99.99,,2013-03-08 03:52:00,
2013-03-07 21:01:00,40.0,27.0,-100.00,North,0,7.0,11.0,58,-99.99,,,-99.99,,2013-03-08 04:01:00,
2013-03-07 21:11:00,39.0,26.0,-100.00,NNW,340,6.0,11.0,57,-99.99,,,-99.99,,2013-03-08 04:11:00,
2013-03-07 21:21:00,38.0,26.0,-100.00,NNW,330,3.0,7.0,61,-99.99,,,-99.99,,2013-03-08 04:21:00,
2013-03-07 21:32:00,39.0,27.0,-100.00,NW,320,4.0,5.0,62,-99.99,,,-99.99,,2013-03-08 04:32:00,
2013-03-07 21:42:00,38.0,27.0,-100.00,NW,315,2.0,5.0,62,-99.99,,,-99.99,,2013-03-08 04:42:00,
2013-03-07 21:52:00,37.0,26.0,-100.00,NNW,330,4.0,5.0,64,-99.99,,,-99.99,,2013-03-08 04:52:00,
2013-03-07 22:02:00,37.0,26.0,-100.00,ESE,115,1.0,3.0,65,-99.99,,,-99.99,,2013-03-08 05:02:00,
2013-03-07 22:12:00,37.0,26.0,-100.00,NE,45,2.0,3.0,65,-99.99,,,-99.99,,2013-03-08 05:12:00,
2013-03-07 22:22:00,36.0,26.0,-100.00,NNE,30,2.0,4.0,66,-99.99,,,-99.99,,2013-03-08 05:22:00,
2013-03-07 22:32:00,35.0,26.0,-100.00,North,10,3.0,4.0,67,-99.99,,,-99.99,,2013-03-08 05:32:00,
2013-03-07 22:42:00,35.0,26.0,-100.00,NE,45,2.0,4.0,69,-99.99,,,-99.99,,2013-03-08 05:42:00,
2013-03-07 22:52:00,35.0,26.0,-100.00,North,0,6.0,6.0,70,-99.99,,,-99.99,,2013-03-08 05:52:00,
2013-03-07 23:01:00,33.0,25.0,-100.00,NNW,345,4.0,6.0,71,-99.99,,,-99.99,,2013-03-08 06:01:00,
2013-03-07 23:11:00,33.0,24.0,-100.00,NNW,345,6.0,7.0,70,-99.99,,,-99.99,,2013-03-08 06:11:00,
2013-03-07 23:21:00,33.0,25.0,-100.00,NNW,335,7.0,7.0,72,-99.99,,,-99.99,,2013-03-08 06:21:00,
2013-03-07 23:32:00,31.0,25.0,-100.00,NNW,335,7.0,9.0,77,-99.99,,,-99.99,,2013-03-08 06:32:00,
2013-03-07 23:42:00,31.0,26.0,-100.00,NNW,330,7.0,9.0,79,-99.99,,,-99.99,,2013-03-08 06:42:00,
2013-03-07 23:51:00,31.0,25.0,-100.00,NNW,340,7.0,9.0,80,-99.99,,,-99.99,,2013-03-08 06:51:00,